GW2260 Weather Reports


Display with metric or nautical units.
time (UTC)temp
F
wind
direction
speed
MPH
gust
MPH
rain 1hr
in
rain 24hr
in
rain mn
in
humidity
%
barometer
mb
20240527061537 62 0 0.0 1.0 0.01 0.04 0.04 95 1019.7
20240527060038 62 0 0.0 1.0 0.02 0.04 0.04 94 1019.5
20240527054527 62 0 0.0 2.0 0.04 0.04 0.04 94 1019.5
20240527053030 62 55 1.0 2.0 0.03 0.03 0.03 93 1019.3
20240527051533 62 0 0.0 2.0 0.03 0.03 0.03 92 1019.2
20240527050114 63 0 0.0 2.0 0.02 0.02 0.02 91 1019.2
20240527044536 63 269 1.0 5.0 0.00 0.00 0.00 91 1019.1
20240527043027 63 246 0.0 2.0 0.00 0.00 0.00 90 1019.0
20240527041527 64 0 0.0 3.0 0.00 0.00 0.00 90 1018.9
20240527040033 64 223 1.0 4.0 0.00 0.00 0.00 88 1019.0
20240527034532 64 311 0.0 4.0 0.00 0.00 0.00 87 1018.7
20240527033036 65 0 1.0 4.0 0.00 0.00 0.00 87 1018.6
20240527031531 65 264 1.0 4.0 0.00 0.00 0.00 87 1018.3
20240527030036 65 265 1.0 3.0 0.00 0.00 0.00 87 1018.3
20240527024533 66 307 1.0 7.0 0.00 0.00 0.00 87 1018.4
20240527023027 66 309 1.0 5.0 0.00 0.00 0.00 86 1018.3
20240527021527 67 311 1.0 5.0 0.00 0.00 0.00 85 1018.5
20240527020029 68 311 2.0 6.0 0.00 0.00 0.00 84 1018.3
20240527014528 67 239 1.0 4.0 0.00 0.00 0.00 85 1018.3
20240527013028 66 22 1.0 4.0 0.00 0.00 0.00 85 1018.4
20240527011537 67 254 1.0 4.0 0.00 0.00 0.00 83 1018.5
20240527010032 67 0 1.0 7.0 0.00 0.00 0.00 82 1018.5
20240527004528 68 235 2.0 6.0 0.00 0.00 0.00 83 1018.4
20240527003027 68 287 1.0 8.0 0.00 0.00 0.00 82 1018.4
20240527001548 68 200 2.0 5.0 0.00 0.00 0.00 80 1018.5
20240527000029 68 229 3.0 7.0 0.00 0.00 0.00 81 1018.6
20240526234527 68 306 3.0 8.0 0.00 0.00 0.00 82 1018.6
20240526233027 69 224 4.0 8.0 0.00 0.00 0.00 80 1018.7
20240526231533 69 288 4.0 9.0 0.00 0.00 0.00 80 1018.6
20240526230028 69 283 2.0 8.0 0.00 0.00 0.00 79 1018.8
20240526224527 69 208 3.0 7.0 0.00 0.00 0.00 81 1018.8
20240526223026 68 286 4.0 9.0 0.00 0.00 0.00 78 1018.9
20240526221531 68 271 4.0 10.0 0.00 0.00 0.00 81 1019.1
20240526220033 67 249 4.0 8.0 0.00 0.00 0.00 82 1019.2
20240526214533 67 197 2.0 7.0 0.00 0.00 0.00 83 1019.4
20240526213033 68 302 2.0 5.0 0.00 0.00 0.00 82 1019.4
20240526211526 67 294 2.0 8.0 0.00 0.00 0.00 83 1019.5
20240526210030 68 285 1.0 4.0 0.00 0.00 0.00 82 1019.6
20240526204538 67 284 1.0 5.0 0.00 0.00 0.00 85 1019.5
20240526203027 67 288 2.0 7.0 0.00 0.00 0.00 81 1019.6
20240526201537 66 178 1.0 4.0 0.00 0.00 0.00 81 1019.7
20240526200039 66 344 1.0 6.0 0.00 0.00 0.00 83 1019.9
20240526194527 67 258 1.0 6.0 0.00 0.00 0.00 84 1019.9
20240526193031 65 284 1.0 6.0 0.00 0.00 0.00 83 1019.9
20240526191545 65 318 1.0 3.0 0.00 0.00 0.00 85 1020.0
20240526190030 66 275 1.0 4.0 0.00 0.00 0.00 82 1019.8
20240526184531 65 238 1.0 5.0 0.00 0.00 0.00 83 1019.7
20240526183029 65 286 1.0 6.0 0.00 0.00 0.00 84 1019.7
20240526181529 64 0 1.0 3.0 0.00 0.00 0.00 82 1019.6
20240526180030 63 271 0.0 3.0 0.00 0.00 0.00 84 1019.5
20240526174528 61 32 1.0 3.0 0.00 0.00 0.00 84 1019.6
20240526173029 59 0 0.0 4.0 0.00 0.00 0.00 83 1019.3
20240526171530 58 144 1.0 2.0 0.00 0.00 0.00 85 1019.3
20240526170030 57 137 1.0 4.0 0.00 0.00 0.00 83 1019.3
20240526164530 56 89 2.0 4.0 0.00 0.00 0.00 79 1019.1
20240526163034 56 119 3.0 5.0 0.00 0.00 0.00 80 1019.0
20240526161551 56 124 3.0 4.0 0.00 0.00 0.00 82 1018.9
20240526160031 56 128 2.0 5.0 0.00 0.00 0.00 82 1019.0
20240526154530 55 94 2.0 6.0 0.00 0.00 0.00 81 1018.8
20240526153028 56 134 2.0 4.0 0.00 0.00 0.00 83 1018.5
20240526151536 56 121 3.0 6.0 0.00 0.00 0.00 82 1018.6
20240526150030 56 117 3.0 5.0 0.00 0.00 0.00 84 1018.5
20240526144530 56 132 2.0 6.0 0.00 0.00 0.00 84 1018.4
20240526143031 56 148 3.0 6.0 0.00 0.00 0.00 86 1018.4
20240526141541 56 126 3.0 4.0 0.00 0.00 0.00 86 1018.5
20240526140034 56 126 3.0 4.0 0.00 0.00 0.00 87 1018.7
20240526134539 56 127 3.0 4.0 0.00 0.00 0.00 87 1018.4
20240526133030 56 120 2.0 6.0 0.00 0.00 0.00 88 1018.6
20240526131529 56 123 2.0 4.0 0.00 0.00 0.00 88 1018.6
20240526130039 56 121 2.0 4.0 0.00 0.00 0.00 89 1018.8
20240526124530 57 115 2.0 4.0 0.00 0.00 0.00 88 1019.1
20240526123027 57 94 2.0 4.0 0.00 0.00 0.00 86 1019.1
20240526121533 58 132 2.0 4.0 0.00 0.00 0.00 87 1019.2
20240526120034 57 122 2.0 4.0 0.00 0.00 0.00 87 1019.5
20240526114541 57 123 2.0 4.0 0.00 0.00 0.00 87 1019.4
20240526113034 57 121 2.0 4.0 0.00 0.00 0.00 87 1019.5
20240526111528 57 125 2.0 5.0 0.00 0.00 0.00 87 1019.8
20240526110030 57 130 1.0 6.0 0.00 0.00 0.00 86 1019.8
20240526104527 57 117 1.0 4.0 0.00 0.00 0.00 87 1020.2
20240526103026 57 116 2.0 4.0 0.00 0.00 0.00 87 1020.3
20240526101526 58 148 0.0 4.0 0.00 0.00 0.00 87 1020.6
20240526100105 58 105 3.0 4.0 0.00 0.00 0.00 88 1020.6
20240526094539 58 120 2.0 5.0 0.00 0.00 0.00 89 1020.8
20240526093030 58 132 2.0 5.0 0.00 0.00 0.00 89 1021.0
20240526091533 58 129 1.0 3.0 0.00 0.00 0.00 90 1021.1
20240526090028 58 122 1.0 3.0 0.00 0.00 0.00 91 1021.3
20240526084535 58 122 2.0 4.0 0.00 0.00 0.00 90 1021.4
20240526083031 58 128 2.0 5.0 0.00 0.00 0.00 90 1021.3
20240526081539 59 126 2.0 3.0 0.00 0.00 0.00 94 1021.3
20240526080031 59 124 1.0 2.0 0.00 0.00 0.00 95 1021.1
20240526074527 60 147 0.0 2.0 0.00 0.00 0.00 95 1021.0
20240526073027 61 44 0.0 2.0 0.00 0.00 0.00 95 1020.8
20240526071533 61 0 0.0 1.0 0.00 0.00 0.00 96 1020.8
20240526070036 61 0 0.0 1.0 0.00 0.00 0.00 96 1020.9
20240526064527 61 0 0.0 1.0 0.00 0.01 0.00 95 1021.0
20240526063032 62 0 0.0 3.0 0.00 0.01 0.00 95 1020.8